Back to catalog

STARLINK-37427

AliveCommunicationsVLEO
NORAD 69381·PAYLOAD·🇺🇸 United States

Launched Jun 4, 2026 from Cape Canaveral Space Force Station

Loading…

Next Passes (next 24 hours)

TLE

FreshSource: CelesTrak SupGP

Epoch: Sep 14, 2026, 15:27 UTC

1 69381C 26123AE  26257.64423611  .00068298  00000+0  20183-2 0  2575
2 69381  53.1571 169.0747 0001274  93.5644 166.7918 15.34349338    12

Track STARLINK-37427 in real time with AllMySat

Download on the App Store